WetterOnline ( https://www.wetteronline.de )

Wetter aktuell Stollberg

Aktuelles Wetter: Marienberg (640m)

6-stündlich | Neueste Meldungen
Ortszeit Temperatur Wetter
Fr, 12.07. 14:00 25.7° C leicht bewölkt
Fr, 12.07. 8:00 20.6° C bedeckt
Fr, 12.07. 2:00 15.9° C wolkig
Do, 11.07. 20:00 22.3° C bewölkt
Do, 11.07. 14:00 23.7° C leicht bewölkt
Do, 11.07. 8:00 18.1° C bedeckt
Do, 11.07. 2:00 17.4° C bedeckt
Mi, 10.07. 20:00 22.1° C wolkig
Ortszeit Temperatur Wetter
Fr, 12.07. 16:00 22.3° C leichter Regen
Fr, 12.07. 15:50 22.3° C leichter Regen
Fr, 12.07. 15:40 22.2° C bedeckt
Fr, 12.07. 15:30 22.9° C wolkig
Fr, 12.07. 15:20 22.9° C wolkig
Fr, 12.07. 15:10 23.2° C leichter Regen
Fr, 12.07. 15:00 25.3° C wolkig
Fr, 12.07. 14:30 25.6° C leicht bewölkt
Fr, 12.07. 14:00 25.7° C leicht bewölkt
Fr, 12.07. 13:30 24.6° C leicht bewölkt
Fr, 12.07. 13:00 23.6° C wolkig
Ortszeit Relative Feuchte Sichtweite
Fr, 12.07. 14:00 59% 45 km
Fr, 12.07. 8:00 75% 55 km
Fr, 12.07. 2:00 94% 26 km
Do, 11.07. 20:00 69% >70 km
Do, 11.07. 14:00 60% 60 km
Do, 11.07. 8:00 84% 55 km
Do, 11.07. 2:00 87% 50 km
Mi, 10.07. 20:00 68% 55 km
Ortszeit Relative Feuchte Sichtweite
Fr, 12.07. 16:00 73% 35 km
Fr, 12.07. 15:50 73% -
Fr, 12.07. 15:40 71% -
Fr, 12.07. 15:30 66% 65 km
Fr, 12.07. 15:20 66% -
Fr, 12.07. 15:10 66% -
Fr, 12.07. 15:00 61% 50 km
Fr, 12.07. 14:30 59% 50 km
Fr, 12.07. 14:00 59% 45 km
Fr, 12.07. 13:30 63% 60 km
Fr, 12.07. 13:00 66% 45 km
Ortszeit Niederschlagsmenge Niederschlagsart
Fr, 12.07. 14:00 0.0 l/m2 in 6 Std. -
Fr, 12.07. 8:00 0.0 l/m2 in 12 Std. -
Fr, 12.07. 2:00 0.0 l/m2 in 6 Std. -
Do, 11.07. 20:00 0.5 l/m2 in 12 Std. Regen
Do, 11.07. 14:00 0.1 l/m2 in 6 Std. Regen
Do, 11.07. 8:00 0.1 l/m2 in 12 Std. Regen
Do, 11.07. 2:00 0.1 l/m2 in 6 Std. Regen
Mi, 10.07. 20:00 2 l/m2 in 12 Std. -
Ortszeit Niederschlagsmenge Niederschlagsart
Fr, 12.07. 16:00 <0.05 l/m2 in 1 Std. Regen
Fr, 12.07. 15:50 keine Meldung -
Fr, 12.07. 15:40 keine Meldung -
Fr, 12.07. 15:30 <0.05 l/m2 in 30 Min Schneeregen
Fr, 12.07. 15:20 keine Meldung -
Fr, 12.07. 15:10 keine Meldung -
Fr, 12.07. 15:00 0.0 l/m2 in 1 Std. -
Fr, 12.07. 14:30 0.0 l/m2 in 30 Min -
Fr, 12.07. 14:00 0.0 l/m2 in 1 Std. -
Fr, 12.07. 13:30 0.0 l/m2 in 30 Min -
Fr, 12.07. 13:00 0.0 l/m2 in 1 Std. -
Ortszeit Stärke Spitze Richtung
km/h Bft. km/h Grad Sektor
Fr, 12.07. 14:00 17 3 41 160° S
Fr, 12.07. 8:00 7 2 18 110° O
Fr, 12.07. 2:00 2 1 15 110° O
Do, 11.07. 20:00 7 2 32 40° NO
Do, 11.07. 14:00 7 2 18 250° W
Do, 11.07. 8:00 6 1 13 280° W
Do, 11.07. 2:00 7 2 22 250° W
Mi, 10.07. 20:00 13 3 33 310° NW
Ortszeit Stärke Spitze Richtung
km/h Bft. km/h Grad Sektor
Fr, 12.07. 16:00 7 2 25 330° NW
Fr, 12.07. 15:50 7 2 - 330° NW
Fr, 12.07. 15:40 7 2 - 320° NW
Fr, 12.07. 15:30 9 2 24 220° SW
Fr, 12.07. 15:20 9 2 - 220° SW
Fr, 12.07. 15:10 11 2 - 190° S
Fr, 12.07. 15:00 9 2 37 180° S
Fr, 12.07. 14:30 14 3 36 170° S
Fr, 12.07. 14:00 17 3 39 160° S
Fr, 12.07. 13:30 17 3 39 170° S
Fr, 12.07. 13:00 18 3 40 150° SO
Ortszeit Untergrenze Bedeckung Gattung
total tief tief mittel hoch
Fr, 12.07. 14:00 2700 m 4/8 4/8 - - -
Fr, 12.07. 8:00 3300 m 8/8 8/8 - - -
Fr, 12.07. 2:00 1050 m 7/8 1/8 - - -
Do, 11.07. 20:00 630 m 7/8 7/8 - - -
Do, 11.07. 14:00 840 m 4/8 4/8 - - -
Do, 11.07. 8:00 2400 m 8/8 8/8 - - -
Do, 11.07. 2:00 3000 m 8/8 8/8 - - -
Mi, 10.07. 20:00 1200 m 7/8 2/8 - - -
Ortszeit Bedeckungsgrad in Achtel und Wolkenuntergrenze
Fr, 12.07. 16:00 2(1380m) 8(4200m) 8(5100m)
Fr, 12.07. 15:50 2(1380m) 8(4200m) 8(5100m)
Fr, 12.07. 15:40 8
Fr, 12.07. 15:30 1(2700m) 7(3900m) 7(4500m)
Fr, 12.07. 15:20 1(2700m) 7(3900m) 7(4500m)
Fr, 12.07. 15:10 7
Fr, 12.07. 15:00 1(1080m) 4(4500m) 7(7800m)
Fr, 12.07. 14:30 2(1110m) 4(8100m) 5(8400m)
Fr, 12.07. 14:00 4(2700m)
Fr, 12.07. 13:30 1(3300m) 3(9000m) 5(9000m)
Fr, 12.07. 13:00 1(810m) 6(3300m) 7(8700m)
Ortszeit Luftdruck NN (hPa) Tendenz (hPa in 3 Std.)
Fr, 12.07. 14:00 1008 - 1,9
Fr, 12.07. 8:00 1012 - 0,9
Fr, 12.07. 2:00 1016 - 0,8
Do, 11.07. 20:00 1015 - 0,1
Do, 11.07. 14:00 1015 - 0,7
Do, 11.07. 8:00 1017 + 0,4
Do, 11.07. 2:00 1017 - 0,1
Mi, 10.07. 20:00 1015 + 0,9
Ortszeit Luftdruck NN (hPa) Tendenz (hPa in 3 Std.)
Fr, 12.07. 16:00 1008 - 1,1
Fr, 12.07. 15:50 1008 keine Meldung
Fr, 12.07. 15:40 1008 keine Meldung
Fr, 12.07. 15:30 1008 - 1,4
Fr, 12.07. 15:20 1008 keine Meldung
Fr, 12.07. 15:10 1008 keine Meldung
Fr, 12.07. 15:00 1008 - 1,2
Fr, 12.07. 14:30 1007 - 1,8
Fr, 12.07. 14:00 1008 - 1,9
Fr, 12.07. 13:30 1008 - 1,7
Fr, 12.07. 13:00 1009 - 1,5
Ortszeit Schneehöhe (cm)
Fr, 12.07. 14:00 0
Fr, 12.07. 8:00 0
Fr, 12.07. 2:00 0
Do, 11.07. 20:00 0
Do, 11.07. 14:00 0
Do, 11.07. 8:00 0
Do, 11.07. 2:00 0
Mi, 10.07. 20:00 0
Ortszeit Schneehöhe (cm)
Fr, 12.07. 16:00 0
Fr, 12.07. 15:50 0
Fr, 12.07. 15:40 -
Fr, 12.07. 15:30 0
Fr, 12.07. 15:20 0
Fr, 12.07. 15:10 -
Fr, 12.07. 15:00 0
Fr, 12.07. 14:30 0
Fr, 12.07. 14:00 0
Fr, 12.07. 13:30 0
Fr, 12.07. 13:00 0
Link zu dieser Seite / Seite empfehlen

Das Wetter in ...